User: anonymous   Login
Location: Oshawa
(43.9000°N, 78.8670°W)
Time: 09:10:12
(UTC-05:00)
Language:

CZ-4C R/B - Orbit

View from above orbital plane
View from above orbital plane
View from above satellite
View from above satellite

Ground track
Ground track

The orbit data is extracted from the following two-line orbital elements,

1 32290U 07055B   17021.33597655  .00001803  00000-0  53883-4 0  9990
2 32290  97.5260 124.8904 0066935 296.1601  63.2767 15.33863898509301
Epoch (UTC): 21 January 2017 08:03:48
Eccentricity: 0.0066935
inclination: 97.5260°
perigee height: 418 km
apogee height: 510 km
right ascension of ascending node: 124.8904°
argument of perigee: 296.1601°
revolutions per day: 15.33863898
mean anomaly at epoch: 63.2767°
orbit number at epoch: 50930

The dashed part of the orbit path shows where the satellite is in the earth's shadow,  

DLR